Location: Unspecified
(0.0000°N, 0.0000°E)
Time: 11:38:50
(UTC+00:00)

Transit 2A Rocket - Pass Details

Date: 24 November 2019
Orbit: 594 x 909 km, 66.7° (Epoch: 07 December)

Event Time Altitude Azimuth Distance (km) Brightness Sun altitude
Rises 18:47:39 0° 204° (SSW) 3,369 9.1 -14.2°
Reaches altitude 10° 18:50:12 10° 206° (SSW) 2,387 8.3 -14.8°
Maximum altitude 18:55:39 69° 289° (WNW) 803 5.2 -16.1°
Enters shadow 19:00:21 11° 12° (NNE) 2,080 6.9 -17.2°
Drops below altitude 10° 19:00:34 10° 13° (NNE) 2,167 - -17.2°
Sets 19:02:48 0° 15° (NNE) 3,034 - -17.8°
